Weather History for Ardmore, OK

Change the Weather History Date:

Saturday, December 8, 2012

  Actual Average Record
Temperature  
Mean Temperature 50 °F -  
Max Temperature 59 °F 54 °F 69 °F (2003)
Min Temperature 41 °F 35 °F 10 °F (2005)
Degree Days  
Heating Degree Days 15    
Moisture  
Dew Point 43 °F    
Average Humidity 98    
Maximum Humidity 100    
Minimum Humidity 67    
Precipitation  
Precipitation 0.00 in - - ()
Sea Level Pressure  
Sea Level Pressure 29.88 in    
Wind  
Wind Speed 2 mph (NNW)    
Max Wind Speed 7 mph    
Max Gust Speed -    
Visibility 4 miles    
Events Fog    
Averages and records for this station are not official NWS values.
T = Trace of Precipitation, MM = Missing Value Source: NWS Daily Summary

Daily Weather History Graph

Daily Weather History Graph

Search for Another Location

Airport:

Trip Planner

Search our weather history database for the weather conditions in past years. The results will help you decide how hot, cold, wet, or windy it might be!

Date:

Astronomy

Dec. 08, 2012 Rise Set
Actual Time 7:22 AM CST 5:18 PM CST
Civil Twilight 6:54 AM CST 5:45 PM CST
Nautical Twilight 6:23 AM CST 6:17 PM CST
Astronomical Twilight 5:52 AM CST 6:47 PM CST
Moon 1:59 AM CST (12/8) 1:39 PM CST (12/8)
Length of Visible Light 10h 51m
Length of Day
9h 55m
Waning Crescent, 28% of the Moon is Illuminated
Dec 8
Waning Crescent
Dec 13
New
Dec 19
First Quarter
Dec 28
Full
Jan 4
Last Quarter

Hourly Weather History & Observations

Time (CST) Temp. Windchill Dew Point Humidity Pressure Visibility Wind Dir Wind Speed Gust Speed Precip Events Conditions
12:15 AM 44.6 °F - 44.6 °F 100% 29.90 in 7.0 mi Calm Calm - N/A   Scattered Clouds
12:35 AM 44.6 °F - 44.6 °F 100% 29.90 in 5.0 mi Calm Calm - N/A   Mostly Cloudy
12:55 AM 46.4 °F - 46.4 °F 100% 29.90 in 7.0 mi Calm Calm - N/A   Overcast
1:15 AM 44.6 °F 43.1 °F 44.6 °F 100% 29.90 in 5.0 mi North 3.5 mph - N/A   Overcast
1:35 AM 44.6 °F 42.2 °F 44.6 °F 100% 29.90 in 5.0 mi NW 4.6 mph - N/A   Overcast
1:55 AM 42.8 °F 40.1 °F 41.0 °F 93% 29.90 in 3.0 mi NW 4.6 mph - N/A   Overcast
2:15 AM 41.0 °F - 41.0 °F 100% 29.90 in 1.5 mi Calm Calm - N/A   Overcast
2:35 AM 42.8 °F 40.1 °F 42.8 °F 100% 29.90 in 1.2 mi NW 4.6 mph - N/A   Overcast
2:55 AM 41.0 °F 38.0 °F 41.0 °F 100% 29.90 in 3.0 mi NNW 4.6 mph - N/A   Overcast
3:15 AM 41.0 °F 36.4 °F 41.0 °F 100% 29.90 in 3.0 mi NNW 6.9 mph - N/A   Overcast
3:35 AM 41.0 °F 37.1 °F 41.0 °F 100% 29.90 in 4.0 mi NNW 5.8 mph - N/A   Overcast
3:55 AM 42.8 °F 40.1 °F 42.8 °F 100% 29.90 in 4.0 mi North 4.6 mph - N/A   Overcast
4:15 AM 42.8 °F - 42.8 °F 100% 29.90 in 4.0 mi Calm Calm - N/A   Overcast
4:35 AM 42.8 °F - 42.8 °F 100% 29.90 in 5.0 mi Calm Calm - N/A   Overcast
4:55 AM 41.0 °F - 41.0 °F 100% 29.91 in 2.0 mi Calm Calm - N/A   Overcast
5:15 AM 41.0 °F 38.0 °F 41.0 °F 100% 29.91 in 2.5 mi NNW 4.6 mph - N/A   Overcast
5:35 AM 41.0 °F - 41.0 °F 100% 29.91 in 0.2 mi Calm Calm - N/A Fog Fog
6:55 AM 42.8 °F - 42.8 °F 100% 29.94 in 3.0 mi Calm Calm - N/A   Overcast
7:55 AM 48.2 °F - 48.2 °F 100% 29.94 in 3.0 mi NE 4.6 mph - N/A   Overcast
10:55 AM 51.8 °F - 50.0 °F 94% 29.93 in 7.0 mi East 4.6 mph - N/A   Overcast
1:55 PM 59.0 °F - 48.2 °F 67% 29.84 in 10.0 mi Calm Calm - N/A   Overcast
10:35 PM 44.6 °F - 44.6 °F 100% 29.80 in 3.0 mi Calm Calm - N/A   Clear
10:55 PM 42.8 °F - 42.8 °F 100% 29.80 in 1.8 mi Calm Calm - N/A   Mist
11:15 PM 42.8 °F - 41.0 °F 93% 29.80 in 5.0 mi Calm Calm - N/A   Clear
11:35 PM 42.8 °F - 42.8 °F 100% 29.79 in 2.0 mi Calm Calm - N/A   Clear
11:55 PM 42.8 °F - 41.0 °F 93% 29.79 in 7.0 mi Calm Calm - N/A   Scattered Clouds